Regional Weather Roundup
Issued by NWS

Home | Current Version | Previous Version | Graphics & Text | Print | Product List | Glossary On
Versions: 1 2 3 4 5 6 7 8 9 10 11 12 13 14 15 16 17 18 19 20 21 22 23 24 25 26 27 28 29 30 31 32 33 34 35 36 37 38 39 40 41 42 43 44 45 46 47 48 49 50
000
ASUS43 KBIS 261610
RWRND
NORTH DAKOTA REGIONAL WEATHER ROUNDUP
NATIONAL WEATHER SERVICE EASTERN NORTH DAKOTA/GRAND FORKS ND
1100 AM CDT MON JUN 26 2017

  NOTE: "FAIR" INDICATES FEW OR NO CLOUDS BELOW 12,000 FEET WITH NO
  SIGNIFICANT WEATHER AND/OR OBSTRUCTIONS TO VISIBILITY.

NDZ001>003-009>011-017-261700-
...NORTHWEST NORTH DAKOTA...

CITY           SKY/WX    TMP DP  RH WIND       PRES   REMARKS
WILLISTON      FAIR      71  46  40 SE7       30.18F
MINOT          FAIR      66  36  32 VRB3      30.23F
MINOT AFB      FAIR      67  37  33 S9        30.22F
$$

NDZ018>021-031>035-040>046-261700-
...SOUTHWEST NORTH DAKOTA...

CITY           SKY/WX    TMP DP  RH WIND       PRES   REMARKS
BISMARCK       FAIR      66  46  48 VRB3      30.26F
DICKINSON      FAIR      67  41  38 S9G20     30.20F
GARRISON         N/A     64  40  41 S6        30.24F
HETTINGER      FAIR      68  42  38 S13G20    30.24F
$$

NDZ004>008-012>016-024-026-027-054-261700-
...NORTHEAST NORTH DAKOTA...

CITY           SKY/WX    TMP DP  RH WIND       PRES   REMARKS
GRAND FORKS    FAIR      69  43  38 NW7G17    30.21F
GRAND FORKS AF FAIR      68  40  37 NW9       30.22F
DEVILS LAKE    FAIR      63  39  41 W6        30.25F
$$

NDZ022-023-025-028>030-036>039-047>053-261700-
...SOUTHEAST NORTH DAKOTA...

CITY           SKY/WX    TMP DP  RH WIND       PRES   REMARKS
JAMESTOWN      FAIR      64  40  41 MISG      30.25F
FARGO          FAIR      67  42  40 NW8       30.23F
WAHPETON       FAIR      63  39  42 NW5       30.25F
$$



USA.gov is the U.S. government's official web portal to all federal, state and local government web resources and services.